This is the latest recevied weather packets stored in our database for station/object IW1QQG-13. If no packets are shown the sender has not sent any weather packets the latest 10 day(s).
| Time | Temp. | Humidity | Pressure | Rain* | Wind** | Luminosity | Snow |
|---|---|---|---|---|---|---|---|
| 1777717828 | 21.11° C | 34% | 1025.7 hPa | 0 mm | - | 190 W/m² | - |
| 1777717228 | 22.22° C | 34% | 1026.1 hPa | 0 mm | - | 162 W/m² | - |
| 1777716628 | 20.56° C | 32% | 1026.1 hPa | 0 mm | - | 172 W/m² | - |
| 1777716028 | 21.11° C | 33% | 1026.1 hPa | 0 mm | - | 158 W/m² | - |
| 1777715428 | 21.11° C | 32% | 1026.1 hPa | 0 mm | - | 140 W/m² | - |
| 1777714828 | 21.11° C | 33% | 1026.1 hPa | 0 mm | - | 121 W/m² | - |
| 1777714228 | 21.11° C | 32% | 1026.1 hPa | 0 mm | - | 97 W/m² | - |
| 1777713628 | 21.67° C | 32% | 1026.1 hPa | 0 mm | - | 78 W/m² | - |
| 1777713028 | 21.11° C | 31% | 1026.1 hPa | 0 mm | - | 60 W/m² | - |
| 1777712428 | 21.11° C | 30% | 1026.1 hPa | 0 mm | - | 32 W/m² | - |
| 1777711828 | 21.67° C | 31% | 1026.4 hPa | 0 mm | - | - | - |
| 1777711228 | 21.67° C | 30% | 1026.4 hPa | 0 mm | - | - | - |
| 1777710628 | 21.67° C | 30% | 1026.1 hPa | 0 mm | - | - | - |
| 1777710028 | 21.67° C | 31% | 1026.4 hPa | 0 mm | - | - | - |
| 1777709428 | 21.11° C | 31% | 1026.4 hPa | 0 mm | - | - | - |
| 1777708828 | 21.11° C | 31% | 1026.4 hPa | 0 mm | - | - | - |
| 1777708228 | 21.11° C | 32% | 1026.4 hPa | 0 mm | - | - | - |
| 1777707628 | 21.11° C | 30% | 1026.4 hPa | 0 mm | - | - | - |
| 1777707028 | 20.56° C | 30% | 1026.4 hPa | 0 mm | - | 0 W/m² | - |
| 1777706428 | 21.11° C | 29% | 1026.4 hPa | 0 mm | - | - | - |
| 1777705828 | 21.11° C | 35% | 1026.4 hPa | 0 mm | - | 296 W/m² | - |
| 1777705228 | 21.11° C | 35% | 1026.4 hPa | 0 mm | - | 323 W/m² | - |
| 1777704628 | 20.56° C | 38% | 1026.1 hPa | 0 mm | - | 299 W/m² | - |
| 1777704028 | 18.89° C | 45% | 1026.1 hPa | 0 mm | - | 270 W/m² | - |
| 1777703428 | 17.22° C | 50% | 1026.1 hPa | 0 mm | - | 211 W/m² | - |
* Rain latest hour (hover to see other rain measurements)
** Current wind speed in m/s (hover to see current wind gust speed)